This is the latest recevied weather packets stored in our database for station/object KD7AWQ. If no packets are shown the sender has not sent any weather packets the latest 10 day(s).
| Time | Temp. | Humidity | Pressure | Rain* | Wind** | Luminosity | Snow |
|---|---|---|---|---|---|---|---|
| 1777824102 | 19.44° C | 38% | 1187.3 hPa | 0 mm | - | 683 W/m² | - |
| 1777823193 | 18.33° C | 40% | 1187.4 hPa | 0 mm | - | 560 W/m² | - |
| 1777822588 | 18.89° C | 39% | 1187.2 hPa | 0 mm | - | 326 W/m² | - |
| 1777822286 | 18.89° C | 39% | 1187.2 hPa | 0 mm | - | 503 W/m² | - |
| 1777821983 | 18.33° C | 41% | 1187.2 hPa | 0 mm | - | 463 W/m² | - |
| 1777821681 | 17.78° C | 41% | 1187.2 hPa | 0 mm | - | 425 W/m² | - |
| 1777821378 | 17.78° C | 41% | 1186.7 hPa | 0 mm | - | 429 W/m² | - |
| 1777820772 | 17.22° C | 43% | 1187 hPa | 0 mm | - | 335 W/m² | - |
| 1777820468 | 17.22° C | 43% | 1186.9 hPa | 0 mm | - | 299 W/m² | - |
| 1777819863 | 16.67° C | 44% | 1186.7 hPa | 0 mm | - | 299 W/m² | - |
| 1777819560 | 16.67° C | 44% | 1187.2 hPa | 0 mm | - | 365 W/m² | - |
| 1777818954 | 16.11° C | 45% | 1187.1 hPa | 0 mm | - | 268 W/m² | - |
| 1777817438 | 16.11° C | 46% | 1186.7 hPa | 0 mm | - | 154 W/m² | - |
| 1777816832 | 15.56° C | 47% | 1186.7 hPa | 0 mm | - | 122 W/m² | - |
| 1777814408 | 15° C | 48% | 1186.4 hPa | 0 mm | - | 65 W/m² | - |
| 1777810769 | 15° C | 49% | 1185.8 hPa | 0 mm | - | 0 W/m² | - |
| 1777810466 | 15° C | 49% | 1186.1 hPa | 0 mm | - | 0 W/m² | - |
| 1777807741 | 15° C | 49% | 1186.1 hPa | 0 mm | - | 0 W/m² | - |
| 1777806230 | 15.56° C | 48% | 1186.2 hPa | 0 mm | - | 0 W/m² | - |
| 1777804716 | 15.56° C | 49% | 1186.1 hPa | 0 mm | - | 0 W/m² | - |
| 1777804111 | 15.56° C | 48% | 1186 hPa | 0 mm | - | 0 W/m² | - |
| 1777803808 | 15.56° C | 48% | 1186 hPa | 0 mm | - | 0 W/m² | - |
| 1777803503 | 15.56° C | 48% | 1186.1 hPa | 0 mm | - | 0 W/m² | - |
| 1777802898 | 16.11° C | 47% | 1186.4 hPa | 0 mm | - | 0 W/m² | - |
| 1777802596 | 15.56° C | 47% | 1186.2 hPa | 0 mm | - | 0 W/m² | - |
* Rain latest hour (hover to see other rain measurements)
** Current wind speed in m/s (hover to see current wind gust speed)